<?xml version="1.0" encoding="UTF-8" standalone="no" ?>
<gpx xmlns="http://www.topografix.com/GPX/1/1" xmlns:xsi="http://www.w3.org/2001/XMLSchema-instance" xsi:schemaLocation="http://www.topografix.com/GPX/1/1 http://www.topografix.com/GPX/1/1/gpx.xsd" version="1.1" creator="VisuGPX - https://www.visugpx.com">
  <metadata>
    <name>Mont Cima</name>
    <desc><![CDATA[Mont Cima Nice]]></desc>
  </metadata>
  <trk>
    <name><![CDATA[Vtopo 06 initiés n°18 / mont cima]]></name>
    <trkseg>
      <trkpt lat="43.78443" lon="7.24351">
        <ele>500</ele>
        <time>2009-01-23T09:16:14Z</time>
      </trkpt>
      <trkpt lat="43.7848" lon="7.24379">
        <ele>501</ele>
        <time>2009-01-23T09:16:14Z</time>
      </trkpt>
      <trkpt lat="43.78509" lon="7.24388">
        <ele>504</ele>
        <time>2009-01-23T09:16:14Z</time>
      </trkpt>
      <trkpt lat="43.78575" lon="7.24434">
        <ele>524</ele>
        <time>2009-01-23T09:16:14Z</time>
      </trkpt>
      <trkpt lat="43.78624" lon="7.24426">
        <ele>537</ele>
        <time>2009-01-23T09:16:14Z</time>
      </trkpt>
      <trkpt lat="43.78659" lon="7.24401">
        <ele>540</ele>
        <time>2009-01-23T09:16:14Z</time>
      </trkpt>
      <trkpt lat="43.78724" lon="7.24409">
        <ele>543</ele>
        <time>2009-01-23T09:16:14Z</time>
      </trkpt>
      <trkpt lat="43.78759" lon="7.2444">
        <ele>546</ele>
        <time>2009-01-23T09:16:14Z</time>
      </trkpt>
      <trkpt lat="43.78785" lon="7.24511">
        <ele>562</ele>
        <time>2009-01-23T09:16:14Z</time>
      </trkpt>
      <trkpt lat="43.78825" lon="7.2453">
        <ele>565</ele>
        <time>2009-01-23T09:16:14Z</time>
      </trkpt>
      <trkpt lat="43.78846" lon="7.2456">
        <ele>573</ele>
        <time>2009-01-23T09:16:14Z</time>
      </trkpt>
      <trkpt lat="43.78845" lon="7.24578">
        <ele>577</ele>
        <time>2009-01-23T09:16:14Z</time>
      </trkpt>
      <trkpt lat="43.78815" lon="7.24588">
        <ele>576</ele>
        <time>2009-01-23T09:16:14Z</time>
      </trkpt>
      <trkpt lat="43.78825" lon="7.24632">
        <ele>583</ele>
        <time>2009-01-23T09:16:14Z</time>
      </trkpt>
      <trkpt lat="43.78873" lon="7.24658">
        <ele>592</ele>
        <time>2009-01-23T09:16:14Z</time>
      </trkpt>
      <trkpt lat="43.78901" lon="7.24639">
        <ele>588</ele>
        <time>2009-01-23T09:16:14Z</time>
      </trkpt>
      <trkpt lat="43.78935" lon="7.24639">
        <ele>588</ele>
        <time>2009-01-23T09:16:14Z</time>
      </trkpt>
      <trkpt lat="43.78964" lon="7.24685">
        <ele>602</ele>
        <time>2009-01-23T09:16:14Z</time>
      </trkpt>
      <trkpt lat="43.78982" lon="7.2469">
        <ele>606</ele>
        <time>2009-01-23T09:16:14Z</time>
      </trkpt>
      <trkpt lat="43.79041" lon="7.24673">
        <ele>612</ele>
        <time>2009-01-23T09:16:14Z</time>
      </trkpt>
      <trkpt lat="43.79102" lon="7.24666">
        <ele>622</ele>
        <time>2009-01-23T09:16:14Z</time>
      </trkpt>
      <trkpt lat="43.79201" lon="7.24628">
        <ele>631</ele>
        <time>2009-01-23T09:16:14Z</time>
      </trkpt>
      <trkpt lat="43.79255" lon="7.24527">
        <ele>624</ele>
        <time>2009-01-23T09:16:14Z</time>
      </trkpt>
      <trkpt lat="43.7929" lon="7.24495">
        <ele>632</ele>
        <time>2009-01-23T09:16:14Z</time>
      </trkpt>
      <trkpt lat="43.79326" lon="7.24452">
        <ele>634</ele>
        <time>2009-01-23T09:16:14Z</time>
      </trkpt>
      <trkpt lat="43.7939" lon="7.2442">
        <ele>648</ele>
        <time>2009-01-23T09:16:14Z</time>
      </trkpt>
      <trkpt lat="43.79498" lon="7.24327">
        <ele>660</ele>
        <time>2009-01-23T09:16:14Z</time>
      </trkpt>
      <trkpt lat="43.79557" lon="7.24223">
        <ele>661</ele>
        <time>2009-01-23T09:16:14Z</time>
      </trkpt>
      <trkpt lat="43.79585" lon="7.24139">
        <ele>662</ele>
        <time>2009-01-23T09:16:14Z</time>
      </trkpt>
      <trkpt lat="43.79596" lon="7.24161">
        <ele>671</ele>
        <time>2009-01-23T09:16:14Z</time>
      </trkpt>
      <trkpt lat="43.7956" lon="7.24304">
        <ele>684</ele>
        <time>2009-01-23T09:16:14Z</time>
      </trkpt>
      <trkpt lat="43.79473" lon="7.2444">
        <ele>691</ele>
        <time>2009-01-23T09:16:14Z</time>
      </trkpt>
      <trkpt lat="43.79382" lon="7.24556">
        <ele>696</ele>
        <time>2009-01-23T09:16:14Z</time>
      </trkpt>
      <trkpt lat="43.79352" lon="7.24659">
        <ele>700</ele>
        <time>2009-01-23T09:16:14Z</time>
      </trkpt>
      <trkpt lat="43.79329" lon="7.24729">
        <ele>690</ele>
        <time>2009-01-23T09:16:14Z</time>
      </trkpt>
      <trkpt lat="43.79329" lon="7.24788">
        <ele>678</ele>
        <time>2009-01-23T09:16:14Z</time>
      </trkpt>
      <trkpt lat="43.79341" lon="7.2477">
        <ele>685</ele>
        <time>2009-01-23T09:16:14Z</time>
      </trkpt>
      <trkpt lat="43.79352" lon="7.24715">
        <ele>698</ele>
        <time>2009-01-23T09:16:14Z</time>
      </trkpt>
      <trkpt lat="43.79398" lon="7.24592">
        <ele>715</ele>
        <time>2009-01-23T09:16:14Z</time>
      </trkpt>
      <trkpt lat="43.79537" lon="7.24464">
        <ele>734</ele>
        <time>2009-01-23T09:16:14Z</time>
      </trkpt>
      <trkpt lat="43.79584" lon="7.24412">
        <ele>735</ele>
        <time>2009-01-23T09:16:14Z</time>
      </trkpt>
      <trkpt lat="43.79684" lon="7.24293">
        <ele>735</ele>
        <time>2009-01-23T09:16:14Z</time>
      </trkpt>
      <trkpt lat="43.79736" lon="7.24198">
        <ele>737</ele>
        <time>2009-01-23T09:16:14Z</time>
      </trkpt>
      <trkpt lat="43.79786" lon="7.24137">
        <ele>739</ele>
        <time>2009-01-23T09:16:14Z</time>
      </trkpt>
      <trkpt lat="43.79801" lon="7.24098">
        <ele>733</ele>
        <time>2009-01-23T09:16:14Z</time>
      </trkpt>
      <trkpt lat="43.79847" lon="7.24087">
        <ele>739</ele>
        <time>2009-01-23T09:16:14Z</time>
      </trkpt>
      <trkpt lat="43.79852" lon="7.24071">
        <ele>737</ele>
        <time>2009-01-23T09:16:14Z</time>
      </trkpt>
      <trkpt lat="43.79892" lon="7.24072">
        <ele>739</ele>
        <time>2009-01-23T09:16:14Z</time>
      </trkpt>
      <trkpt lat="43.79918" lon="7.24099">
        <ele>744</ele>
        <time>2009-01-23T09:16:14Z</time>
      </trkpt>
      <trkpt lat="43.79948" lon="7.24139">
        <ele>745</ele>
        <time>2009-01-23T09:16:14Z</time>
      </trkpt>
      <trkpt lat="43.7997" lon="7.24197">
        <ele>746</ele>
        <time>2009-01-23T09:16:14Z</time>
      </trkpt>
      <trkpt lat="43.8" lon="7.24224">
        <ele>739</ele>
        <time>2009-01-23T09:16:14Z</time>
      </trkpt>
      <trkpt lat="43.79999" lon="7.24258">
        <ele>740</ele>
        <time>2009-01-23T09:16:14Z</time>
      </trkpt>
      <trkpt lat="43.80022" lon="7.24335">
        <ele>734</ele>
        <time>2009-01-23T09:16:14Z</time>
      </trkpt>
      <trkpt lat="43.80055" lon="7.24462">
        <ele>732</ele>
        <time>2009-01-23T09:16:14Z</time>
      </trkpt>
      <trkpt lat="43.80084" lon="7.24471">
        <ele>730</ele>
        <time>2009-01-23T09:16:14Z</time>
      </trkpt>
      <trkpt lat="43.80097" lon="7.24484">
        <ele>732</ele>
        <time>2009-01-23T09:16:14Z</time>
      </trkpt>
      <trkpt lat="43.80105" lon="7.24504">
        <ele>735</ele>
        <time>2009-01-23T09:16:14Z</time>
      </trkpt>
      <trkpt lat="43.80118" lon="7.24467">
        <ele>731</ele>
        <time>2009-01-23T09:16:14Z</time>
      </trkpt>
      <trkpt lat="43.80119" lon="7.24387">
        <ele>718</ele>
        <time>2009-01-23T09:16:14Z</time>
      </trkpt>
      <trkpt lat="43.8013" lon="7.24347">
        <ele>709</ele>
        <time>2009-01-23T09:16:14Z</time>
      </trkpt>
      <trkpt lat="43.80159" lon="7.2426">
        <ele>687</ele>
        <time>2009-01-23T09:16:14Z</time>
      </trkpt>
      <trkpt lat="43.80202" lon="7.24154">
        <ele>659</ele>
        <time>2009-01-23T09:16:14Z</time>
      </trkpt>
      <trkpt lat="43.80227" lon="7.24098">
        <ele>646</ele>
        <time>2009-01-23T09:16:14Z</time>
      </trkpt>
      <trkpt lat="43.80228" lon="7.24014">
        <ele>628</ele>
        <time>2009-01-23T09:16:14Z</time>
      </trkpt>
      <trkpt lat="43.80274" lon="7.23959">
        <ele>628</ele>
        <time>2009-01-23T09:16:14Z</time>
      </trkpt>
      <trkpt lat="43.8027" lon="7.23893">
        <ele>598</ele>
        <time>2009-01-23T09:16:14Z</time>
      </trkpt>
      <trkpt lat="43.80268" lon="7.23893">
        <ele>597</ele>
        <time>2009-01-23T09:16:14Z</time>
      </trkpt>
      <trkpt lat="43.80299" lon="7.23886">
        <ele>609</ele>
        <time>2009-01-23T09:16:14Z</time>
      </trkpt>
      <trkpt lat="43.80342" lon="7.2384">
        <ele>611</ele>
        <time>2009-01-23T09:16:14Z</time>
      </trkpt>
      <trkpt lat="43.80398" lon="7.23792">
        <ele>626</ele>
        <time>2009-01-23T09:16:14Z</time>
      </trkpt>
      <trkpt lat="43.80436" lon="7.23761">
        <ele>628</ele>
        <time>2009-01-23T09:16:14Z</time>
      </trkpt>
      <trkpt lat="43.80472" lon="7.23749">
        <ele>622</ele>
        <time>2009-01-23T09:16:14Z</time>
      </trkpt>
      <trkpt lat="43.80485" lon="7.23762">
        <ele>626</ele>
        <time>2009-01-23T09:16:14Z</time>
      </trkpt>
      <trkpt lat="43.80511" lon="7.23786">
        <ele>618</ele>
        <time>2009-01-23T09:16:14Z</time>
      </trkpt>
      <trkpt lat="43.8051" lon="7.2382">
        <ele>623</ele>
        <time>2009-01-23T09:16:14Z</time>
      </trkpt>
      <trkpt lat="43.80514" lon="7.23877">
        <ele>630</ele>
        <time>2009-01-23T09:16:14Z</time>
      </trkpt>
      <trkpt lat="43.80515" lon="7.23905">
        <ele>634</ele>
        <time>2009-01-23T09:16:14Z</time>
      </trkpt>
      <trkpt lat="43.80525" lon="7.23983">
        <ele>637</ele>
        <time>2009-01-23T09:16:14Z</time>
      </trkpt>
      <trkpt lat="43.80547" lon="7.24032">
        <ele>647</ele>
        <time>2009-01-23T09:16:14Z</time>
      </trkpt>
      <trkpt lat="43.80565" lon="7.24033">
        <ele>651</ele>
        <time>2009-01-23T09:16:14Z</time>
      </trkpt>
      <trkpt lat="43.80623" lon="7.23961">
        <ele>637</ele>
        <time>2009-01-23T09:16:14Z</time>
      </trkpt>
      <trkpt lat="43.80669" lon="7.23918">
        <ele>628</ele>
        <time>2009-01-23T09:16:14Z</time>
      </trkpt>
      <trkpt lat="43.80689" lon="7.23879">
        <ele>617</ele>
        <time>2009-01-23T09:16:14Z</time>
      </trkpt>
      <trkpt lat="43.80737" lon="7.23871">
        <ele>618</ele>
        <time>2009-01-23T09:16:14Z</time>
      </trkpt>
      <trkpt lat="43.80762" lon="7.23873">
        <ele>624</ele>
        <time>2009-01-23T09:16:14Z</time>
      </trkpt>
      <trkpt lat="43.80772" lon="7.2384">
        <ele>614</ele>
        <time>2009-01-23T09:16:14Z</time>
      </trkpt>
      <trkpt lat="43.80768" lon="7.2383">
        <ele>609</ele>
        <time>2009-01-23T09:16:14Z</time>
      </trkpt>
      <trkpt lat="43.80775" lon="7.23828">
        <ele>610</ele>
        <time>2009-01-23T09:16:14Z</time>
      </trkpt>
      <trkpt lat="43.80767" lon="7.23808">
        <ele>600</ele>
        <time>2009-01-23T09:16:14Z</time>
      </trkpt>
      <trkpt lat="43.80772" lon="7.2374">
        <ele>579</ele>
        <time>2009-01-23T09:16:14Z</time>
      </trkpt>
      <trkpt lat="43.80796" lon="7.23714">
        <ele>577</ele>
        <time>2009-01-23T09:16:14Z</time>
      </trkpt>
      <trkpt lat="43.80841" lon="7.23703">
        <ele>583</ele>
        <time>2009-01-23T09:16:14Z</time>
      </trkpt>
      <trkpt lat="43.80877" lon="7.23569">
        <ele>551</ele>
        <time>2009-01-23T09:16:14Z</time>
      </trkpt>
      <trkpt lat="43.80875" lon="7.23557">
        <ele>547</ele>
        <time>2009-01-23T09:16:14Z</time>
      </trkpt>
      <trkpt lat="43.80844" lon="7.23551">
        <ele>541</ele>
        <time>2009-01-23T09:16:14Z</time>
      </trkpt>
      <trkpt lat="43.80845" lon="7.23514">
        <ele>531</ele>
        <time>2009-01-23T09:16:14Z</time>
      </trkpt>
      <trkpt lat="43.80858" lon="7.2348">
        <ele>523</ele>
        <time>2009-01-23T09:16:14Z</time>
      </trkpt>
      <trkpt lat="43.8083" lon="7.23447">
        <ele>511</ele>
        <time>2009-01-23T09:16:14Z</time>
      </trkpt>
      <trkpt lat="43.80845" lon="7.2342">
        <ele>503</ele>
        <time>2009-01-23T09:16:14Z</time>
      </trkpt>
      <trkpt lat="43.80857" lon="7.23449">
        <ele>514</ele>
        <time>2009-01-23T09:16:14Z</time>
      </trkpt>
      <trkpt lat="43.80897" lon="7.23428">
        <ele>507</ele>
        <time>2009-01-23T09:16:14Z</time>
      </trkpt>
      <trkpt lat="43.80917" lon="7.23417">
        <ele>502</ele>
        <time>2009-01-23T09:16:14Z</time>
      </trkpt>
      <trkpt lat="43.80922" lon="7.23408">
        <ele>499</ele>
        <time>2009-01-23T09:16:14Z</time>
      </trkpt>
      <trkpt lat="43.8089" lon="7.23381">
        <ele>486</ele>
        <time>2009-01-23T09:16:14Z</time>
      </trkpt>
      <trkpt lat="43.80898" lon="7.2335">
        <ele>475</ele>
        <time>2009-01-23T09:16:14Z</time>
      </trkpt>
      <trkpt lat="43.80852" lon="7.23268">
        <ele>464</ele>
        <time>2009-01-23T09:16:14Z</time>
      </trkpt>
      <trkpt lat="43.80814" lon="7.23253">
        <ele>470</ele>
        <time>2009-01-23T09:16:14Z</time>
      </trkpt>
      <trkpt lat="43.80796" lon="7.23254">
        <ele>474</ele>
        <time>2009-01-23T09:16:14Z</time>
      </trkpt>
      <trkpt lat="43.80773" lon="7.23165">
        <ele>453</ele>
        <time>2009-01-23T09:16:14Z</time>
      </trkpt>
      <trkpt lat="43.8073" lon="7.23118">
        <ele>447</ele>
        <time>2009-01-23T09:16:14Z</time>
      </trkpt>
      <trkpt lat="43.80695" lon="7.23112">
        <ele>447</ele>
        <time>2009-01-23T09:16:14Z</time>
      </trkpt>
      <trkpt lat="43.80672" lon="7.23076">
        <ele>429</ele>
        <time>2009-01-23T09:16:14Z</time>
      </trkpt>
      <trkpt lat="43.80687" lon="7.23071">
        <ele>429</ele>
        <time>2009-01-23T09:16:14Z</time>
      </trkpt>
      <trkpt lat="43.80693" lon="7.23046">
        <ele>419</ele>
        <time>2009-01-23T09:16:14Z</time>
      </trkpt>
      <trkpt lat="43.80726" lon="7.23065">
        <ele>423</ele>
        <time>2009-01-23T09:16:14Z</time>
      </trkpt>
      <trkpt lat="43.80787" lon="7.23058">
        <ele>404</ele>
        <time>2009-01-23T09:16:14Z</time>
      </trkpt>
      <trkpt lat="43.80833" lon="7.23096">
        <ele>401</ele>
        <time>2009-01-23T09:16:14Z</time>
      </trkpt>
      <trkpt lat="43.80843" lon="7.23122">
        <ele>408</ele>
        <time>2009-01-23T09:16:14Z</time>
      </trkpt>
      <trkpt lat="43.80914" lon="7.23146">
        <ele>405</ele>
        <time>2009-01-23T09:16:14Z</time>
      </trkpt>
      <trkpt lat="43.8095" lon="7.23131">
        <ele>421</ele>
        <time>2009-01-23T09:16:14Z</time>
      </trkpt>
      <trkpt lat="43.80928" lon="7.23073">
        <ele>404</ele>
        <time>2009-01-23T09:16:14Z</time>
      </trkpt>
      <trkpt lat="43.8094" lon="7.23024">
        <ele>409</ele>
        <time>2009-01-23T09:16:14Z</time>
      </trkpt>
      <trkpt lat="43.80964" lon="7.22986">
        <ele>416</ele>
        <time>2009-01-23T09:16:14Z</time>
      </trkpt>
      <trkpt lat="43.80973" lon="7.22971">
        <ele>417</ele>
        <time>2009-01-23T09:16:14Z</time>
      </trkpt>
      <trkpt lat="43.8099" lon="7.22957">
        <ele>420</ele>
        <time>2009-01-23T09:16:14Z</time>
      </trkpt>
      <trkpt lat="43.80981" lon="7.22994">
        <ele>426</ele>
        <time>2009-01-23T09:16:14Z</time>
      </trkpt>
      <trkpt lat="43.80966" lon="7.23039">
        <ele>426</ele>
        <time>2009-01-23T09:16:14Z</time>
      </trkpt>
      <trkpt lat="43.80966" lon="7.23092">
        <ele>430</ele>
        <time>2009-01-23T09:16:14Z</time>
      </trkpt>
      <trkpt lat="43.80974" lon="7.23102">
        <ele>436</ele>
        <time>2009-01-23T09:16:14Z</time>
      </trkpt>
      <trkpt lat="43.80993" lon="7.23044">
        <ele>442</ele>
        <time>2009-01-23T09:16:14Z</time>
      </trkpt>
      <trkpt lat="43.81019" lon="7.23012">
        <ele>449</ele>
        <time>2009-01-23T09:16:14Z</time>
      </trkpt>
      <trkpt lat="43.81062" lon="7.22994">
        <ele>460</ele>
        <time>2009-01-23T09:16:14Z</time>
      </trkpt>
      <trkpt lat="43.81077" lon="7.22971">
        <ele>458</ele>
        <time>2009-01-23T09:16:14Z</time>
      </trkpt>
      <trkpt lat="43.81083" lon="7.22984">
        <ele>466</ele>
        <time>2009-01-23T09:16:14Z</time>
      </trkpt>
      <trkpt lat="43.81049" lon="7.23043">
        <ele>470</ele>
        <time>2009-01-23T09:16:14Z</time>
      </trkpt>
      <trkpt lat="43.81034" lon="7.23085">
        <ele>474</ele>
        <time>2009-01-23T09:16:14Z</time>
      </trkpt>
      <trkpt lat="43.81034" lon="7.23116">
        <ele>475</ele>
        <time>2009-01-23T09:16:14Z</time>
      </trkpt>
      <trkpt lat="43.81043" lon="7.23117">
        <ele>480</ele>
        <time>2009-01-23T09:16:14Z</time>
      </trkpt>
      <trkpt lat="43.81057" lon="7.23174">
        <ele>491</ele>
        <time>2009-01-23T09:16:14Z</time>
      </trkpt>
      <trkpt lat="43.81066" lon="7.23175">
        <ele>496</ele>
        <time>2009-01-23T09:16:14Z</time>
      </trkpt>
      <trkpt lat="43.81062" lon="7.23243">
        <ele>501</ele>
        <time>2009-01-23T09:16:14Z</time>
      </trkpt>
      <trkpt lat="43.81079" lon="7.23235">
        <ele>510</ele>
        <time>2009-01-23T09:16:14Z</time>
      </trkpt>
      <trkpt lat="43.81091" lon="7.23171">
        <ele>509</ele>
        <time>2009-01-23T09:16:14Z</time>
      </trkpt>
      <trkpt lat="43.81084" lon="7.23121">
        <ele>500</ele>
        <time>2009-01-23T09:16:14Z</time>
      </trkpt>
      <trkpt lat="43.81096" lon="7.23106">
        <ele>504</ele>
        <time>2009-01-23T09:16:14Z</time>
      </trkpt>
      <trkpt lat="43.81092" lon="7.23146">
        <ele>506</ele>
        <time>2009-01-23T09:16:14Z</time>
      </trkpt>
      <trkpt lat="43.81107" lon="7.23166">
        <ele>516</ele>
        <time>2009-01-23T09:16:14Z</time>
      </trkpt>
      <trkpt lat="43.81107" lon="7.23216">
        <ele>524</ele>
        <time>2009-01-23T09:16:14Z</time>
      </trkpt>
      <trkpt lat="43.81125" lon="7.23199">
        <ele>531</ele>
        <time>2009-01-23T09:16:14Z</time>
      </trkpt>
      <trkpt lat="43.81142" lon="7.23129">
        <ele>527</ele>
        <time>2009-01-23T09:16:14Z</time>
      </trkpt>
      <trkpt lat="43.81166" lon="7.23103">
        <ele>531</ele>
        <time>2009-01-23T09:16:14Z</time>
      </trkpt>
      <trkpt lat="43.81194" lon="7.23068">
        <ele>530</ele>
        <time>2009-01-23T09:16:14Z</time>
      </trkpt>
      <trkpt lat="43.81175" lon="7.2315">
        <ele>542</ele>
        <time>2009-01-23T09:16:14Z</time>
      </trkpt>
      <trkpt lat="43.81169" lon="7.23218">
        <ele>558</ele>
        <time>2009-01-23T09:16:14Z</time>
      </trkpt>
      <trkpt lat="43.81179" lon="7.23206">
        <ele>559</ele>
        <time>2009-01-23T09:16:14Z</time>
      </trkpt>
      <trkpt lat="43.81203" lon="7.23171">
        <ele>554</ele>
        <time>2009-01-23T09:16:14Z</time>
      </trkpt>
      <trkpt lat="43.81213" lon="7.23203">
        <ele>565</ele>
        <time>2009-01-23T09:16:14Z</time>
      </trkpt>
      <trkpt lat="43.81272" lon="7.23202">
        <ele>567</ele>
        <time>2009-01-23T09:16:14Z</time>
      </trkpt>
      <trkpt lat="43.8126" lon="7.23108">
        <ele>538</ele>
        <time>2009-01-23T09:16:14Z</time>
      </trkpt>
      <trkpt lat="43.81273" lon="7.23112">
        <ele>538</ele>
        <time>2009-01-23T09:16:14Z</time>
      </trkpt>
      <trkpt lat="43.81294" lon="7.2316">
        <ele>549</ele>
        <time>2009-01-23T09:16:14Z</time>
      </trkpt>
      <trkpt lat="43.81325" lon="7.23169">
        <ele>549</ele>
        <time>2009-01-23T09:16:14Z</time>
      </trkpt>
      <trkpt lat="43.81355" lon="7.23153">
        <ele>539</ele>
        <time>2009-01-23T09:16:14Z</time>
      </trkpt>
      <trkpt lat="43.81412" lon="7.23174">
        <ele>530</ele>
        <time>2009-01-23T09:16:14Z</time>
      </trkpt>
      <trkpt lat="43.81478" lon="7.23217">
        <ele>517</ele>
        <time>2009-01-23T09:16:14Z</time>
      </trkpt>
      <trkpt lat="43.81485" lon="7.23264">
        <ele>524</ele>
        <time>2009-01-23T09:16:14Z</time>
      </trkpt>
      <trkpt lat="43.81525" lon="7.2332">
        <ele>510</ele>
        <time>2009-01-23T09:16:14Z</time>
      </trkpt>
      <trkpt lat="43.81522" lon="7.23379">
        <ele>520</ele>
        <time>2009-01-23T09:16:14Z</time>
      </trkpt>
      <trkpt lat="43.81555" lon="7.23463">
        <ele>505</ele>
        <time>2009-01-23T09:16:14Z</time>
      </trkpt>
      <trkpt lat="43.81561" lon="7.23519">
        <ele>498</ele>
        <time>2009-01-23T09:16:14Z</time>
      </trkpt>
      <trkpt lat="43.81544" lon="7.23592">
        <ele>509</ele>
        <time>2009-01-23T09:16:14Z</time>
      </trkpt>
      <trkpt lat="43.81558" lon="7.23693">
        <ele>508</ele>
        <time>2009-01-23T09:16:14Z</time>
      </trkpt>
      <trkpt lat="43.81578" lon="7.23735">
        <ele>483</ele>
        <time>2009-01-23T09:16:14Z</time>
      </trkpt>
      <trkpt lat="43.81469" lon="7.23813">
        <ele>498</ele>
        <time>2009-01-23T09:16:14Z</time>
      </trkpt>
      <trkpt lat="43.81394" lon="7.23878">
        <ele>527</ele>
        <time>2009-01-23T09:16:14Z</time>
      </trkpt>
      <trkpt lat="43.81376" lon="7.23889">
        <ele>539</ele>
        <time>2009-01-23T09:16:14Z</time>
      </trkpt>
      <trkpt lat="43.81379" lon="7.23911">
        <ele>546</ele>
        <time>2009-01-23T09:16:14Z</time>
      </trkpt>
      <trkpt lat="43.81414" lon="7.23926">
        <ele>540</ele>
        <time>2009-01-23T09:16:14Z</time>
      </trkpt>
      <trkpt lat="43.81435" lon="7.23969">
        <ele>549</ele>
        <time>2009-01-23T09:16:14Z</time>
      </trkpt>
      <trkpt lat="43.81467" lon="7.24002">
        <ele>544</ele>
        <time>2009-01-23T09:16:14Z</time>
      </trkpt>
      <trkpt lat="43.81483" lon="7.24004">
        <ele>536</ele>
        <time>2009-01-23T09:16:14Z</time>
      </trkpt>
      <trkpt lat="43.81488" lon="7.24051">
        <ele>536</ele>
        <time>2009-01-23T09:16:14Z</time>
      </trkpt>
      <trkpt lat="43.81468" lon="7.24183">
        <ele>551</ele>
        <time>2009-01-23T09:16:14Z</time>
      </trkpt>
      <trkpt lat="43.81469" lon="7.24273">
        <ele>556</ele>
        <time>2009-01-23T09:16:14Z</time>
      </trkpt>
      <trkpt lat="43.81478" lon="7.24308">
        <ele>551</ele>
        <time>2009-01-23T09:16:14Z</time>
      </trkpt>
      <trkpt lat="43.81398" lon="7.24342">
        <ele>545</ele>
        <time>2009-01-23T09:16:14Z</time>
      </trkpt>
      <trkpt lat="43.81333" lon="7.24436">
        <ele>536</ele>
        <time>2009-01-23T09:16:14Z</time>
      </trkpt>
      <trkpt lat="43.81304" lon="7.24483">
        <ele>534</ele>
        <time>2009-01-23T09:16:14Z</time>
      </trkpt>
      <trkpt lat="43.81282" lon="7.24506">
        <ele>538</ele>
        <time>2009-01-23T09:16:14Z</time>
      </trkpt>
      <trkpt lat="43.81258" lon="7.24497">
        <ele>548</ele>
        <time>2009-01-23T09:16:14Z</time>
      </trkpt>
      <trkpt lat="43.81256" lon="7.24538">
        <ele>547</ele>
        <time>2009-01-23T09:16:14Z</time>
      </trkpt>
      <trkpt lat="43.81281" lon="7.2459">
        <ele>534</ele>
        <time>2009-01-23T09:16:14Z</time>
      </trkpt>
      <trkpt lat="43.81281" lon="7.24636">
        <ele>526</ele>
        <time>2009-01-23T09:16:14Z</time>
      </trkpt>
      <trkpt lat="43.8128" lon="7.24652">
        <ele>523</ele>
        <time>2009-01-23T09:16:14Z</time>
      </trkpt>
      <trkpt lat="43.81222" lon="7.24693">
        <ele>528</ele>
        <time>2009-01-23T09:16:14Z</time>
      </trkpt>
      <trkpt lat="43.81185" lon="7.24712">
        <ele>542</ele>
        <time>2009-01-23T09:16:14Z</time>
      </trkpt>
      <trkpt lat="43.81187" lon="7.24731">
        <ele>542</ele>
        <time>2009-01-23T09:16:14Z</time>
      </trkpt>
      <trkpt lat="43.81204" lon="7.24751">
        <ele>534</ele>
        <time>2009-01-23T09:16:14Z</time>
      </trkpt>
      <trkpt lat="43.81222" lon="7.2479">
        <ele>526</ele>
        <time>2009-01-23T09:16:14Z</time>
      </trkpt>
      <trkpt lat="43.81202" lon="7.24838">
        <ele>535</ele>
        <time>2009-01-23T09:16:14Z</time>
      </trkpt>
      <trkpt lat="43.81207" lon="7.24888">
        <ele>544</ele>
        <time>2009-01-23T09:16:14Z</time>
      </trkpt>
      <trkpt lat="43.81238" lon="7.24937">
        <ele>543</ele>
        <time>2009-01-23T09:16:14Z</time>
      </trkpt>
      <trkpt lat="43.81239" lon="7.24972">
        <ele>550</ele>
        <time>2009-01-23T09:16:14Z</time>
      </trkpt>
      <trkpt lat="43.81264" lon="7.25005">
        <ele>547</ele>
        <time>2009-01-23T09:16:14Z</time>
      </trkpt>
      <trkpt lat="43.81254" lon="7.25082">
        <ele>571</ele>
        <time>2009-01-23T09:16:14Z</time>
      </trkpt>
      <trkpt lat="43.81271" lon="7.25099">
        <ele>573</ele>
        <time>2009-01-23T09:16:14Z</time>
      </trkpt>
      <trkpt lat="43.81318" lon="7.25112">
        <ele>564</ele>
        <time>2009-01-23T09:16:14Z</time>
      </trkpt>
      <trkpt lat="43.81339" lon="7.25195">
        <ele>597</ele>
        <time>2009-01-23T09:16:14Z</time>
      </trkpt>
      <trkpt lat="43.81359" lon="7.25193">
        <ele>597</ele>
        <time>2009-01-23T09:16:14Z</time>
      </trkpt>
      <trkpt lat="43.81471" lon="7.25163">
        <ele>591</ele>
        <time>2009-01-23T09:16:14Z</time>
      </trkpt>
      <trkpt lat="43.81589" lon="7.25251">
        <ele>603</ele>
        <time>2009-01-23T09:16:14Z</time>
      </trkpt>
      <trkpt lat="43.81628" lon="7.25285">
        <ele>595</ele>
        <time>2009-01-23T09:16:14Z</time>
      </trkpt>
      <trkpt lat="43.81667" lon="7.25369">
        <ele>600</ele>
        <time>2009-01-23T09:16:14Z</time>
      </trkpt>
      <trkpt lat="43.81717" lon="7.25454">
        <ele>601</ele>
        <time>2009-01-23T09:16:14Z</time>
      </trkpt>
      <trkpt lat="43.81712" lon="7.2547">
        <ele>599</ele>
        <time>2009-01-23T09:16:14Z</time>
      </trkpt>
      <trkpt lat="43.81608" lon="7.25374">
        <ele>612</ele>
        <time>2009-01-23T09:16:14Z</time>
      </trkpt>
      <trkpt lat="43.81553" lon="7.25338">
        <ele>630</ele>
        <time>2009-01-23T09:16:14Z</time>
      </trkpt>
      <trkpt lat="43.81503" lon="7.25361">
        <ele>641</ele>
        <time>2009-01-23T09:16:14Z</time>
      </trkpt>
      <trkpt lat="43.81404" lon="7.25403">
        <ele>654</ele>
        <time>2009-01-23T09:16:14Z</time>
      </trkpt>
      <trkpt lat="43.81318" lon="7.25364">
        <ele>653</ele>
        <time>2009-01-23T09:16:14Z</time>
      </trkpt>
      <trkpt lat="43.81256" lon="7.25346">
        <ele>668</ele>
        <time>2009-01-23T09:16:14Z</time>
      </trkpt>
      <trkpt lat="43.81149" lon="7.25303">
        <ele>679</ele>
        <time>2009-01-23T09:16:14Z</time>
      </trkpt>
      <trkpt lat="43.81075" lon="7.25253">
        <ele>690</ele>
        <time>2009-01-23T09:16:14Z</time>
      </trkpt>
      <trkpt lat="43.80994" lon="7.25156">
        <ele>712</ele>
        <time>2009-01-23T09:16:14Z</time>
      </trkpt>
      <trkpt lat="43.80956" lon="7.25096">
        <ele>720</ele>
        <time>2009-01-23T09:16:14Z</time>
      </trkpt>
      <trkpt lat="43.80854" lon="7.25056">
        <ele>719</ele>
        <time>2009-01-23T09:16:14Z</time>
      </trkpt>
      <trkpt lat="43.80839" lon="7.25043">
        <ele>725</ele>
        <time>2009-01-23T09:16:14Z</time>
      </trkpt>
      <trkpt lat="43.80815" lon="7.25081">
        <ele>719</ele>
        <time>2009-01-23T09:16:14Z</time>
      </trkpt>
      <trkpt lat="43.80757" lon="7.2512">
        <ele>728</ele>
        <time>2009-01-23T09:16:14Z</time>
      </trkpt>
      <trkpt lat="43.80688" lon="7.25101">
        <ele>724</ele>
        <time>2009-01-23T09:16:14Z</time>
      </trkpt>
      <trkpt lat="43.80488" lon="7.2514">
        <ele>711</ele>
        <time>2009-01-23T09:16:14Z</time>
      </trkpt>
      <trkpt lat="43.80372" lon="7.25176">
        <ele>707</ele>
        <time>2009-01-23T09:16:14Z</time>
      </trkpt>
      <trkpt lat="43.80305" lon="7.25161">
        <ele>706</ele>
        <time>2009-01-23T09:16:14Z</time>
      </trkpt>
      <trkpt lat="43.8022" lon="7.25089">
        <ele>713</ele>
        <time>2009-01-23T09:16:14Z</time>
      </trkpt>
      <trkpt lat="43.80171" lon="7.24985">
        <ele>718</ele>
        <time>2009-01-23T09:16:14Z</time>
      </trkpt>
      <trkpt lat="43.80135" lon="7.24982">
        <ele>705</ele>
        <time>2009-01-23T09:16:14Z</time>
      </trkpt>
      <trkpt lat="43.80097" lon="7.24929">
        <ele>703</ele>
        <time>2009-01-23T09:16:14Z</time>
      </trkpt>
      <trkpt lat="43.80083" lon="7.24884">
        <ele>706</ele>
        <time>2009-01-23T09:16:14Z</time>
      </trkpt>
      <trkpt lat="43.80071" lon="7.24852">
        <ele>705</ele>
        <time>2009-01-23T09:16:14Z</time>
      </trkpt>
      <trkpt lat="43.80083" lon="7.24797">
        <ele>719</ele>
        <time>2009-01-23T09:16:14Z</time>
      </trkpt>
      <trkpt lat="43.80051" lon="7.24701">
        <ele>700</ele>
        <time>2009-01-23T09:16:14Z</time>
      </trkpt>
      <trkpt lat="43.80045" lon="7.24691">
        <ele>696</ele>
        <time>2009-01-23T09:16:14Z</time>
      </trkpt>
      <trkpt lat="43.80045" lon="7.24673">
        <ele>699</ele>
        <time>2009-01-23T09:16:14Z</time>
      </trkpt>
      <trkpt lat="43.80025" lon="7.24677">
        <ele>687</ele>
        <time>2009-01-23T09:16:14Z</time>
      </trkpt>
      <trkpt lat="43.79973" lon="7.24682">
        <ele>675</ele>
        <time>2009-01-23T09:16:14Z</time>
      </trkpt>
      <trkpt lat="43.79911" lon="7.24711">
        <ele>675</ele>
        <time>2009-01-23T09:16:14Z</time>
      </trkpt>
      <trkpt lat="43.79814" lon="7.24749">
        <ele>689</ele>
        <time>2009-01-23T09:16:14Z</time>
      </trkpt>
      <trkpt lat="43.79814" lon="7.24752">
        <ele>688</ele>
        <time>2009-01-23T09:16:14Z</time>
      </trkpt>
      <trkpt lat="43.79772" lon="7.24786">
        <ele>683</ele>
        <time>2009-01-23T09:16:14Z</time>
      </trkpt>
      <trkpt lat="43.79703" lon="7.24817">
        <ele>687</ele>
        <time>2009-01-23T09:16:14Z</time>
      </trkpt>
      <trkpt lat="43.79625" lon="7.24901">
        <ele>672</ele>
        <time>2009-01-23T09:16:14Z</time>
      </trkpt>
      <trkpt lat="43.79564" lon="7.24905">
        <ele>669</ele>
        <time>2009-01-23T09:16:14Z</time>
      </trkpt>
      <trkpt lat="43.79486" lon="7.24889">
        <ele>667</ele>
        <time>2009-01-23T09:16:14Z</time>
      </trkpt>
      <trkpt lat="43.7938" lon="7.24839">
        <ele>669</ele>
        <time>2009-01-23T09:16:14Z</time>
      </trkpt>
      <trkpt lat="43.79343" lon="7.24826">
        <ele>668</ele>
        <time>2009-01-23T09:16:14Z</time>
      </trkpt>
      <trkpt lat="43.7929" lon="7.24794">
        <ele>672</ele>
        <time>2009-01-23T09:16:14Z</time>
      </trkpt>
      <trkpt lat="43.79235" lon="7.24767">
        <ele>668</ele>
        <time>2009-01-23T09:16:14Z</time>
      </trkpt>
      <trkpt lat="43.79189" lon="7.24748">
        <ele>665</ele>
        <time>2009-01-23T09:16:14Z</time>
      </trkpt>
      <trkpt lat="43.79066" lon="7.24762">
        <ele>659</ele>
        <time>2009-01-23T09:16:14Z</time>
      </trkpt>
      <trkpt lat="43.79007" lon="7.24773">
        <ele>642</ele>
        <time>2009-01-23T09:16:14Z</time>
      </trkpt>
      <trkpt lat="43.78973" lon="7.24785">
        <ele>634</ele>
        <time>2009-01-23T09:16:14Z</time>
      </trkpt>
      <trkpt lat="43.78955" lon="7.24787">
        <ele>628</ele>
        <time>2009-01-23T09:16:14Z</time>
      </trkpt>
      <trkpt lat="43.78875" lon="7.24652">
        <ele>591</ele>
        <time>2009-01-23T09:16:14Z</time>
      </trkpt>
      <trkpt lat="43.78825" lon="7.24626">
        <ele>582</ele>
        <time>2009-01-23T09:16:14Z</time>
      </trkpt>
      <trkpt lat="43.78825" lon="7.24583">
        <ele>576</ele>
        <time>2009-01-23T09:16:14Z</time>
      </trkpt>
      <trkpt lat="43.78843" lon="7.24578">
        <ele>577</ele>
        <time>2009-01-23T09:16:14Z</time>
      </trkpt>
      <trkpt lat="43.78848" lon="7.24566">
        <ele>575</ele>
        <time>2009-01-23T09:16:14Z</time>
      </trkpt>
      <trkpt lat="43.78827" lon="7.2453">
        <ele>565</ele>
        <time>2009-01-23T09:16:14Z</time>
      </trkpt>
      <trkpt lat="43.78778" lon="7.24507">
        <ele>562</ele>
        <time>2009-01-23T09:16:14Z</time>
      </trkpt>
      <trkpt lat="43.78757" lon="7.24437">
        <ele>546</ele>
        <time>2009-01-23T09:16:14Z</time>
      </trkpt>
      <trkpt lat="43.78707" lon="7.24399">
        <ele>543</ele>
        <time>2009-01-23T09:16:14Z</time>
      </trkpt>
      <trkpt lat="43.78655" lon="7.24403">
        <ele>540</ele>
        <time>2009-01-23T09:16:14Z</time>
      </trkpt>
      <trkpt lat="43.78611" lon="7.24428">
        <ele>533</ele>
        <time>2009-01-23T09:16:14Z</time>
      </trkpt>
      <trkpt lat="43.78572" lon="7.2443">
        <ele>523</ele>
        <time>2009-01-23T09:16:14Z</time>
      </trkpt>
      <trkpt lat="43.78511" lon="7.24388">
        <ele>504</ele>
        <time>2009-01-23T09:16:14Z</time>
      </trkpt>
      <trkpt lat="43.78487" lon="7.24386">
        <ele>502</ele>
        <time>2009-01-23T09:16:14Z</time>
      </trkpt>
      <trkpt lat="43.78463" lon="7.24368">
        <ele>500</ele>
        <time>2009-01-23T09:16:14Z</time>
      </trkpt>
      <trkpt lat="43.78439" lon="7.24354">
        <ele>501</ele>
        <time>2009-01-23T09:16:14Z</time>
      </trkpt>
    </trkseg>
  </trk>
</gpx>